Wind_Speed
33 33 32 32 31 29 26 25 25 25 26 25 23 20 18 17 18 18 17 17 17 17 16 14 14 15 14 14 13 13 14 14 13 13 12 11 10 10 9 9 9 8
34 33 32 32 31 29 27 26 26 27 27 25 22 20 18 18 18 18 17 17 16 16 15 14 15 15 13 13 13 14 14 14 14 13 12 11 10 10 9 8 8 8
35 33 32 31 31 29 27 27 27 27 26 24 22 20 19 18 18 18 17 16 16 15 14 15 15 14 12 13 14 14 15 14 14 13 12 12 11 10 10 9 9 8
34 32 31 31 29 27 26 27 27 27 27 25 23 20 19 18 18 18 17 16 15 15 15 15 15 13 13 14 14 15 16 15 14 13 13 12 11 11 11 10 9 9
32 31 31 29 27 25 25 26 27 27 27 26 23 21 19 18 18 18 16 16 16 16 16 16 15 14 14 15 16 16 16 15 15 14 13 13 12 11 11 10 9 9
33 32 30 28 27 25 25 26 26 27 26 25 23 21 20 18 16 16 15 16 16 17 17 16 16 16 15 16 17 17 17 16 15 14 14 13 12 12 11 11 11 10
33 32 30 28 27 26 25 26 26 26 25 24 23 21 20 17 15 15 16 16 16 17 17 16 17 16 16 17 18 18 18 17 16 15 14 13 13 13 12 12 11 11
33 31 31 29 28 27 27 26 27 26 25 24 23 21 18 15 14 15 16 15 16 17 17 17 17 17 17 18 19 19 19 18 17 16 15 15 14 14 13 13 12 12
33 32 32 30 29 29 28 28 28 27 25 24 22 19 16 14 14 16 16 15 16 17 17 18 18 17 17 19 20 20 19 19 18 17 16 16 15 14 14 13 13 12
33 33 32 31 31 31 30 30 29 28 26 24 21 18 16 15 17 17 16 16 16 17 18 19 19 18 18 19 20 20 20 19 18 18 17 16 15 15 14 14 13 13
34 34 33 32 32 32 31 31 31 29 27 24 21 19 18 18 18 18 16 16 17 17 18 19 18 18 19 20 20 20 20 20 19 18 18 17 16 15 14 14 14 14
35 35 34 33 33 33 33 33 32 30 26 23 21 19 18 18 18 17 16 16 16 17 18 18 18 19 19 20 20 20 21 20 19 18 18 17 17 16 15 15 15 15
36 35 34 33 34 34 35 34 32 28 25 23 20 18 18 18 18 17 16 16 16 17 17 18 18 19 20 20 20 21 21 21 20 19 19 19 18 17 16 16 16 16
36 35 33 33 34 34 35 34 30 26 24 22 19 18 18 19 19 18 16 16 16 17 18 18 19 20 21 21 22 22 22 21 21 20 20 20 18 17 17 17 16 15
35 34 33 33 34 34 33 31 28 25 24 22 20 18 18 19 19 18 17 17 17 18 19 19 20 21 22 22 23 23 23 22 21 21 21 20 19 18 18 18 16 14
35 34 33 34 34 34 32 29 28 26 24 23 21 19 18 20 20 19 18 18 18 19 20 20 21 21 22 23 24 24 23 23 22 21 21 20 20 19 18 17 15 12
35 34 34 34 35 34 31 29 29 28 26 24 22 20 19 19 20 20 19 19 20 21 22 22 21 21 22 22 23 23 23 23 22 22 21 21 20 20 18 17 14 12
36 36 35 35 35 33 30 29 31 30 28 26 23 21 20 19 20 20 19 20 21 22 23 22 21 20 20 21 22 22 22 22 22 22 21 21 20 19 18 16 14 13
36 36 36 35 34 32 29 30 33 32 30 28 24 22 20 20 20 20 20 21 22 23 23 21 20 19 20 20 21 22 22 22 22 22 21 20 20 19 18 16 14 12
36 35 35 35 34 31 29 31 35 34 32 29 25 24 22 20 20 21 21 21 23 23 23 22 21 20 21 21 22 22 22 21 20 20 20 18 18 18 17 16 14 12
35 35 35 35 35 32 30 33 36 35 33 30 27 25 23 21 20 22 22 22 23 24 23 23 22 22 22 22 21 20 20 19 19 18 17 16 16 15 15 14 13 12
35 35 36 36 35 33 32 35 36 35 34 32 29 26 23 20 21 22 23 23 25 25 25 25 25 24 23 22 22 22 21 21 20 18 16 15 14 13 12 12 12 13
34 34 36 36 34 34 34 36 37 36 35 33 30 26 24 21 22 23 24 25 26 27 27 27 27 27 26 26 26 26 25 24 23 21 19 17 14 12 12 12 14 15
33 33 36 36 35 35 35 36 37 38 36 33 29 26 24 23 22 23 25 26 27 28 28 29 29 29 29 28 27 27 27 25 25 25 22 21 19 18 17 18 19 17
31 31 34 35 34 34 35 37 39 38 36 32 29 26 24 24 23 24 26 28 29 29 29 30 31 30 31 29 26 27 27 26 26 27 26 24 23 22 22 22 22 20
31 30 30 32 33 33 34 37 38 37 35 32 30 27 25 25 25 25 27 29 30 30 30 31 31 31 30 28 25 26 27 26 27 29 28 25 23 23 22 22 22 22
Wind_Direction
211 212 211 210 211 216 221 220 215 212 213 212 213 215 219 226 229 228 221 208 204 206 207 212 219 223 223 221 217 213 211 208 209 210 209 210 212 215 219 222 223 226
210 211 211 211 214 219 222 218 212 210 212 212 213 216 220 225 226 225 219 209 206 208 207 214 223 224 221 219 216 212 210 208 207 208 207 209 211 213 217 219 219 220
209 210 211 214 217 218 217 212 210 210 210 211 214 217 219 223 224 222 216 209 208 208 208 217 224 223 219 217 214 210 209 209 208 207 206 207 209 212 215 215 215 215
207 209 211 214 216 216 215 211 210 210 209 210 214 218 219 222 223 219 214 209 207 208 212 218 222 221 219 215 212 210 210 209 209 208 207 207 209 211 214 214 214 214
205 206 209 212 213 213 212 210 208 207 206 209 213 217 218 220 221 218 212 207 207 211 215 218 220 220 218 213 211 211 211 210 210 209 208 208 210 211 212 213 211 210
202 204 206 210 211 209 207 205 204 203 204 209 213 215 215 217 219 215 210 208 209 214 217 219 221 220 217 213 211 211 211 212 211 209 208 208 210 210 209 209 209 207
201 202 205 207 208 206 203 201 202 203 206 210 213 214 214 216 216 210 210 212 213 216 220 221 222 221 218 214 212 211 211 212 212 209 207 207 209 209 208 208 210 209
200 201 204 206 205 202 201 201 202 206 209 211 212 215 216 217 214 210 211 214 216 219 222 223 224 222 219 216 213 212 212 212 212 209 208 209 209 210 209 208 209 209
199 200 202 203 202 200 200 201 205 208 211 212 213 216 218 218 216 215 216 216 218 221 223 224 225 222 218 216 214 213 214 213 212 210 210 211 211 211 210 210 210 208
199 200 200 201 200 200 201 202 205 209 210 210 211 215 219 218 216 217 219 219 221 223 223 224 224 222 218 216 214 214 215 215 213 211 210 212 214 212 211 211 211 208
200 201 200 201 201 202 203 203 206 210 210 206 207 213 218 217 217 218 219 221 222 223 224 224 224 222 219 216 214 214 215 216 216 214 212 214 215 212 211 211 210 209
200 201 201 203 203 204 205 206 209 211 208 203 207 215 220 219 218 219 220 222 224 224 225 226 224 222 220 218 215 214 215 216 217 216 214 215 215 212 211 210 210 211
200 201 203 204 204 204 205 209 212 210 204 204 211 218 223 221 219 220 223 225 227 226 226 225 224 222 221 218 217 216 217 217 218 217 215 216 216 214 213 212 213 215
199 202 203 203 203 205 209 213 212 205 202 206 212 218 225 224 221 222 222 224 226 226 226 225 223 223 221 218 218 218 219 218 218 217 216 216 216 215 215 217 217 218
200 202 202 202 203 206 211 212 207 201 202 206 211 220 227 225 221 221 220 220 223 224 225 225 224 224 222 220 220 220 219 219 218 218 218 217 217 217 218 221 221 219
200 201 202 203 205 209 212 210 204 200 202 206 212 222 229 225 218 217 218 220 222 223 224 224 224 225 223 221 222 222 220 219 218 218 219 219 220 220 222 224 222 216
199 201 203 205 208 212 214 209 203 201 204 208 214 222 228 224 217 214 216 219 222 224 224 224 224 224 223 221 221 221 220 220 220 220 220 221 222 224 226 227 222 215
199 201 203 206 210 214 214 207 203 203 206 210 215 222 227 224 216 214 215 215 219 222 222 223 222 221 221 220 219 219 219 220 221 222 222 221 221 224 228 228 225 217
200 202 205 207 210 214 213 207 204 205 209 212 217 223 226 223 216 213 213 213 216 218 218 219 219 217 217 218 219 220 220 220 222 223 222 220 221 224 227 227 226 220
201 203 207 209 212 214 213 208 205 207 210 214 219 223 223 221 216 212 211 211 212 214 215 216 216 216 217 219 219 219 219 221 221 220 219 219 220 223 226 227 225 221
202 206 209 210 212 214 212 208 206 208 211 214 219 224 224 223 218 213 211 209 209 213 216 216 218 218 218 217 217 218 220 220 217 215 216 216 217 221 226 229 229 226
203 208 210 211 211 212 210 208 207 209 213 216 219 221 222 223 219 213 211 209 209 213 216 219 221 219 214 215 219 221 222 218 213 210 207 207 214 222 226 231 235 234
206 209 210 211 213 212 209 208 209 212 215 218 218 217 219 223 220 214 213 213 213 215 219 222 223 218 218 225 229 225 220 217 215 212 208 206 209 213 215 220 227 234
207 211 211 212 213 212 211 211 212 213 215 217 219 221 223 226 223 217 215 216 218 221 223 225 225 222 226 233 234 226 219 217 217 217 217 214 209 209 216 222 226 236
208 214 216 217 216 216 217 215 212 211 214 217 221 225 227 227 225 220 216 217 220 224 228 229 228 228 232 235 235 230 222 217 218 219 219 217 214 219 228 231 234 241
210 215 221 224 223 221 218 213 209 210 214 216 219 223 227 228 227 223 218 218 221 225 229 230 229 230 234 237 239 234 224 218 220 220 219 219 220 226 232 232 234 240
Height
1511 1513 1515 1517 1519 1521 1522 1524 1525 1527 1528 1530 1531 1533 1534 1535 1535 1536 1536 1537 1538 1539 1540 1540 1542 1543 1544 1545 1546 1547 1548 1549 1549 1550 1550 1551 1551 1552 1552 1553 1553 1554
1509 1511 1514 1515 1517 1519 1520 1522 1524 1525 1527 1528 1530 1531 1533 1533 1534 1534 1535 1536 1537 1538 1539 1540 1541 1542 1543 1544 1545 1546 1547 1548 1549 1549 1549 1550 1550 1551 1551 1552 1553 1553
1507 1509 1512 1513 1515 1517 1519 1520 1523 1524 1526 1527 1528 1530 1531 1532 1532 1533 1534 1535 1536 1538 1538 1539 1540 1541 1542 1544 1545 1546 1546 1547 1548 1548 1548 1549 1550 1550 1551 1551 1552 1553
1505 1508 1510 1512 1513 1515 1517 1519 1521 1523 1524 1525 1527 1528 1529 1530 1531 1532 1533 1534 1535 1536 1537 1538 1539 1540 1542 1543 1544 1545 1545 1546 1547 1547 1548 1548 1549 1550 1550 1551 1552 1553
1503 1506 1508 1510 1512 1514 1516 1517 1519 1521 1522 1524 1525 1527 1528 1529 1530 1531 1532 1533 1534 1535 1536 1537 1538 1539 1541 1542 1543 1544 1544 1545 1546 1546 1547 1548 1548 1549 1550 1551 1551 1552
1502 1505 1507 1508 1510 1512 1514 1515 1517 1519 1520 1522 1523 1525 1526 1527 1528 1529 1530 1532 1533 1534 1535 1536 1537 1538 1540 1541 1542 1543 1543 1544 1545 1546 1546 1547 1548 1549 1549 1550 1551 1552
1500 1503 1505 1507 1509 1511 1512 1514 1516 1517 1519 1520 1522 1523 1525 1526 1527 1528 1529 1530 1531 1532 1533 1535 1536 1537 1538 1539 1540 1541 1542 1543 1544 1545 1545 1546 1547 1548 1549 1549 1550 1551
1499 1501 1504 1505 1507 1509 1511 1512 1514 1515 1517 1519 1520 1522 1523 1525 1526 1527 1528 1529 1530 1531 1532 1533 1534 1535 1537 1538 1539 1540 1540 1541 1542 1543 1544 1545 1546 1547 1548 1549 1550 1550
1497 1500 1502 1504 1505 1507 1509 1511 1512 1513 1515 1517 1519 1520 1521 1523 1524 1525 1527 1527 1528 1529 1530 1531 1532 1534 1535 1536 1537 1538 1539 1540 1541 1542 1543 1544 1545 1546 1547 1548 1549 1550
1496 1497 1500 1502 1504 1506 1507 1509 1510 1512 1514 1516 1517 1519 1520 1522 1523 1524 1525 1526 1527 1528 1529 1530 1531 1532 1534 1535 1536 1537 1538 1539 1540 1541 1542 1543 1544 1545 1546 1547 1548 1549
1494 1495 1498 1500 1502 1504 1505 1507 1509 1510 1512 1515 1516 1518 1519 1520 1522 1522 1523 1524 1525 1527 1528 1529 1530 1531 1533 1534 1535 1536 1537 1538 1539 1541 1542 1543 1544 1545 1546 1546 1547 1548
1491 1493 1495 1498 1500 1502 1504 1506 1507 1509 1511 1513 1515 1516 1518 1519 1520 1521 1522 1523 1524 1526 1527 1528 1530 1531 1532 1533 1534 1535 1536 1537 1539 1540 1541 1542 1543 1544 1545 1546 1547 1547
1489 1491 1494 1496 1498 1500 1502 1504 1506 1508 1510 1512 1513 1515 1516 1517 1518 1519 1520 1521 1523 1524 1525 1527 1528 1529 1530 1532 1533 1534 1535 1536 1537 1539 1540 1541 1542 1543 1544 1545 1546 1546
1487 1489 1492 1495 1497 1499 1501 1502 1505 1507 1509 1510 1512 1513 1514 1515 1517 1518 1519 1520 1521 1522 1524 1525 1526 1527 1529 1530 1532 1533 1534 1535 1536 1538 1539 1540 1541 1542 1543 1544 1545 1546
1485 1488 1491 1493 1495 1497 1499 1501 1504 1506 1507 1509 1510 1511 1513 1514 1515 1517 1518 1519 1520 1521 1522 1523 1524 1525 1527 1528 1530 1531 1532 1533 1535 1536 1538 1539 1540 1541 1542 1543 1544 1546
1483 1486 1489 1491 1493 1495 1497 1500 1502 1504 1506 1508 1509 1510 1512 1513 1514 1515 1516 1517 1518 1519 1520 1521 1523 1524 1525 1527 1528 1529 1531 1532 1534 1535 1536 1538 1539 1540 1541 1542 1544 1545
1481 1484 1487 1489 1491 1493 1496 1499 1501 1503 1505 1507 1508 1509 1511 1511 1512 1513 1515 1516 1517 1518 1519 1520 1521 1522 1524 1526 1527 1529 1530 1531 1533 1534 1535 1537 1538 1539 1540 1542 1543 1544
1480 1483 1485 1487 1490 1492 1494 1497 1500 1502 1504 1505 1507 1508 1509 1510 1511 1512 1514 1515 1516 1516 1518 1519 1521 1522 1524 1526 1527 1528 1530 1531 1532 1533 1534 1536 1537 1538 1539 1541 1542 1543
1479 1481 1483 1486 1488 1491 1493 1496 1498 1500 1502 1504 1505 1506 1508 1509 1510 1511 1513 1514 1515 1516 1517 1519 1521 1523 1524 1525 1526 1526 1528 1529 1530 1532 1533 1534 1536 1537 1538 1540 1541 1543
1477 1479 1482 1484 1487 1489 1492 1495 1497 1499 1501 1502 1504 1505 1506 1507 1508 1510 1511 1513 1514 1516 1518 1519 1521 1522 1522 1523 1524 1526 1527 1529 1530 1530 1532 1533 1535 1535 1537 1538 1540 1541
1475 1478 1480 1483 1485 1488 1491 1493 1495 1497 1499 1500 1502 1503 1504 1506 1507 1509 1510 1512 1513 1515 1516 1518 1519 1520 1521 1523 1525 1526 1528 1529 1530 1530 1531 1533 1534 1535 1536 1537 1539 1540
1473 1476 1478 1481 1483 1486 1489 1491 1493 1495 1497 1498 1500 1501 1503 1505 1506 1507 1509 1511 1512 1513 1514 1516 1517 1518 1520 1521 1523 1524 1526 1526 1528 1529 1531 1532 1534 1534 1535 1537 1538 1539
1470 1474 1477 1479 1481 1484 1486 1489 1491 1493 1495 1496 1498 1500 1501 1503 1505 1506 1507 1508 1509 1510 1512 1513 1514 1516 1517 1517 1519 1520 1522 1523 1524 1526 1528 1530 1532 1533 1535 1537 1538 1538
1469 1472 1475 1477 1480 1482 1485 1487 1489 1491 1493 1494 1497 1498 1500 1502 1503 1504 1506 1506 1507 1508 1509 1511 1512 1513 1514 1515 1517 1518 1520 1521 1522 1523 1525 1527 1529 1530 1532 1534 1536 1536
1468 1470 1473 1476 1478 1481 1483 1485 1487 1489 1491 1493 1495 1497 1499 1500 1501 1502 1504 1504 1505 1507 1508 1509 1510 1511 1512 1514 1516 1518 1519 1520 1521 1522 1523 1525 1525 1526 1527 1530 1532 1534
1467 1470 1473 1476 1477 1479 1481 1483 1485 1488 1490 1491 1494 1496 1498 1499 1499 1500 1501 1502 1504 1505 1506 1507 1508 1510 1512 1514 1515 1517 1518 1519 1520 1520 1522 1523 1524 1524 1525 1527 1529 1531